RH
50 50 53 57 57 52 71 71 65 54 51 52 50 48 52 42 35 31 30 30 29 27 27 27 26 26 28 31 31 25 28 33 34 32 26 25 23 21 26 25 26 29 28 29 31 32 38
37 38 45 47 56 58 55 59 73 69 60 55 55 54 51 43 44 36 33 30 29 28 28 26 25 26 32 38 29 27 29 36 36 34 28 26 24 24 24 24 27 28 30 29 28 31 38
29 35 36 47 46 59 64 65 57 55 68 55 52 56 59 52 42 36 38 35 32 30 29 26 26 27 35 33 29 30 33 34 36 36 29 28 29 27 24 24 26 27 26 26 27 34 40
17 21 26 28 48 45 53 62 64 58 50 60 54 42 48 56 50 33 29 34 34 30 31 27 27 28 35 27 28 27 29 30 36 37 31 31 33 27 25 25 23 25 25 31 33 37 42
17 18 19 21 19 37 37 36 47 54 50 47 46 51 44 36 42 47 32 28 24 26 28 28 31 36 36 31 33 30 23 30 32 34 31 34 35 28 25 25 24 21 34 36 38 37 43
19 18 18 18 23 19 29 41 33 37 42 45 43 40 36 42 29 36 31 24 17 19 19 25 40 44 36 30 33 35 29 28 31 35 33 36 36 31 26 26 27 29 36 36 36 43 48
18 19 18 17 17 21 21 25 41 28 32 34 39 46 36 36 30 33 24 23 26 35 34 30 36 36 34 36 37 36 33 27 32 35 37 36 37 35 24 22 22 30 33 35 33 38 46
18 18 18 18 19 23 23 25 29 36 32 32 30 29 38 37 29 33 29 16 22 37 34 30 28 29 26 35 40 36 36 34 33 38 40 38 37 31 25 24 24 30 32 33 34 40 48
19 19 19 19 21 23 25 26 29 32 34 35 34 33 31 28 21 16 29 26 33 34 32 17 15 18 16 21 30 34 36 35 35 41 39 39 39 29 30 28 32 33 33 32 35 37 42
20 20 19 20 23 26 27 29 34 37 36 37 38 38 38 33 19 21 24 23 35 44 30 17 9 9 11 14 17 22 32 34 36 39 41 41 41 34 36 38 38 38 32 35 30 34 42
21 21 20 21 24 29 28 33 40 41 43 43 44 45 44 38 27 25 35 27 36 32 16 8 12 10 12 12 9 15 25 34 33 38 40 40 43 42 39 39 41 37 36 35 32 35 38
20 21 21 21 22 28 29 36 42 45 48 47 48 51 50 45 36 30 36 33 45 37 39 12 13 16 19 16 12 13 15 26 31 37 40 39 41 42 39 40 42 40 38 34 36 38 43
20 20 19 21 22 28 30 34 44 47 52 53 54 56 57 53 44 36 42 50 57 50 11 7 19 19 18 18 18 17 20 24 31 37 38 40 42 43 43 42 41 41 40 45 46 50 48
20 18 18 19 25 33 34 39 47 53 56 61 64 65 64 60 58 44 51 59 62 27 14 14 15 24 24 21 19 20 23 29 27 29 33 37 44 43 41 43 42 40 41 50 51 58 43
22 19 20 19 24 33 36 41 56 64 65 71 76 76 70 68 69 58 60 65 47 38 25 14 17 24 27 28 29 28 27 28 30 29 35 40 39 38 42 43 43 41 46 42 45 53 56
23 20 20 22 23 29 41 46 66 76 75 80 82 83 76 84 79 74 71 52 44 35 22 24 23 22 34 41 45 43 39 32 33 34 36 36 42 39 42 45 43 42 42 48 50 55 59
22 20 22 23 29 33 44 56 82 90 85 90 94 92 79 93 93 86 67 51 39 37 35 31 26 31 34 44 46 47 47 49 44 40 38 39 41 42 46 46 48 46 43 46 45 58 61
21 21 25 33 35 39 51 66 96 95 95 99 99 95 89 95 95 75 55 52 53 53 47 39 30 26 32 46 56 52 54 52 58 57 56 55 46 45 40 42 47 47 45 45 51 54 57
22 23 34 38 43 51 62 84 98 98 98 99 98 95 93 89 80 64 61 62 63 62 56 52 41 29 24 45 52 54 63 66 66 64 75 73 65 56 47 45 44 49 48 47 50 52 54
23 30 42 51 60 69 81 96 98 98 98 99 99 97 92 83 66 67 72 67 65 61 57 54 46 39 32 29 40 48 56 58 64 72 73 76 83 71 59 51 52 52 51 47 48 57 52
29 40 54 69 81 90 96 97 97 98 98 98 98 88 79 72 68 71 68 60 59 58 58 54 48 44 41 36 28 29 41 62 63 66 66 73 91 90 70 61 56 52 53 52 49 49 55
40 55 75 92 97 97 96 96 97 98 99 98 96 85 82 76 75 76 71 56 54 61 58 55 54 45 40 35 35 32 32 38 54 60 77 75 86 94 71 64 59 54 51 52 51 52 52
63 82 92 96 97 96 96 96 96 98 98 98 95 92 89 85 84 79 51 43 64 72 63 60 54 52 46 42 36 33 33 40 46 55 70 69 75 89 81 79 72 68 40 47 53 55 52
90 94 96 96 95 95 95 95 95 97 99 99 97 98 98 88 85 55 63 72 66 69 66 63 63 68 54 51 46 42 41 40 45 49 54 64 62 85 91 84 96 45 49 44 48 51 54
95 96 95 93 90 88 86 87 88 94 98 98 99 99 99 95 81 79 67 67 80 71 66 64 64 70 72 69 65 61 54 49 48 50 58 63 71 74 83 94 83 56 50 48 51 46 47
94 85 76 71 69 71 73 75 78 79 86 97 98 97 99 98 86 71 81 80 81 78 78 57 66 73 79 79 81 67 65 50 55 61 67 65 67 68 84 91 96 75 57 54 57 54 44
71 74 74 74 74 75 76 79 82 88 88 89 90 94 99 98 88 88 80 72 78 78 72 70 65 74 79 82 86 77 67 55 59 65 72 77 83 83 87 90 79 83 74 59 68 56 61
82 81 78 75 75 76 80 82 82 86 92 95 89 88 95 97 90 93 80 76 76 75 67 58 78 75 81 87 91 79 72 64 55 54 61 74 86 82 88 90 86 80 79 74 74 67 70
79 77 76 76 75 75 73 71 69 73 85 94 94 82 93 97 96 93 89 84 87 71 77 80 71 70 75 88 90 79 75 74 60 60 47 68 67 78 76 66 55 63 82 78 77 73 72